Cozumel (Civ/Mil, Mexico

7:17 PM on December 09, 2016 (GMT +0000)
Cozumel International

Weather History for MMCZ - April, 2014

Change the Weather History Date:

Sunday, April 6, 2014

  Actual Average Record
Temperature  
Mean Temperature 78 °F -  
Max Temperature 84 °F 85 °F 89 °F (1998)
Min Temperature 71 °F 73 °F 62 °F (2009)
Cooling Degree Days 12    
Growing Degree Days 28 (Base 50)    
Moisture  
Dew Point 73 °F    
Average Humidity 85    
Maximum Humidity 100    
Minimum Humidity 70    
Precipitation  
Precipitation 0.00 in - - ()
Sea Level Pressure  
Sea Level Pressure 29.87 in    
Wind  
Wind Speed 11 mph ()    
Max Wind Speed 22 mph    
Max Gust Speed 30 mph    
Visibility 7.5 miles    
Events      
Averages and records for this station are not official NWS values.
T = Trace of Precipitation, MM = Missing Value Source: Averaged Metar Reports

Daily Weather History Graph

Daily Weather History Graph

Search for Another Location

Airport or City:

Trip Planner

Search our weather history database for the weather conditions in past years. The results will help you decide how hot, cold, wet, or windy it might be!

Date:

Astronomy

Apr. 06, 2014 Rise Set
Actual Time 6:36 AM CDT 7:03 PM CDT
Civil Twilight 6:14 AM CDT 7:25 PM CDT
Nautical Twilight 5:48 AM CDT 7:52 PM CDT
Astronomical Twilight 5:22 AM CDT 8:18 PM CDT
Moon 12:01 PM CDT (4/6) 12:35 AM CST (4/6)
Length of Visible Light 13h 11m
Length of Day
12h 26m
Waxing Crescent, 44% of the Moon is Illuminated
Apr 6
Waxing Crescent
Apr 7
First Quarter
Apr 15
Full
Apr 22
Last Quarter
Apr 29
New

Hourly Weather History & Observations

Time (CDT) Temp. Heat Index Dew Point Humidity Pressure Visibility Wind Dir Wind Speed Gust Speed Precip Events Conditions
12:41 AM 71.6 °F - 71.6 °F 100% 29.93 in 7.0 mi ESE 5.8 mph - N/A   Scattered Clouds
4:51 AM 73.4 °F - 71.6 °F 94% 29.89 in 7.0 mi SE 8.1 mph - N/A   Scattered Clouds
5:40 AM 73.4 °F - 73.4 °F 100% 29.90 in 7.0 mi ESE 8.1 mph - N/A   Scattered Clouds
6:47 AM 73.4 °F - 71.6 °F 94% 29.88 in 7.0 mi ESE 9.2 mph - N/A   Scattered Clouds
7:44 AM 77.0 °F - 73.4 °F 89% 29.92 in 8.0 mi ESE 17.3 mph - N/A   Scattered Clouds
8:41 AM 80.6 °F 86.2 °F 75.2 °F 84% 29.92 in 8.0 mi SE 17.3 mph - N/A   Scattered Clouds
9:43 AM 78.8 °F - 73.4 °F 83% 29.95 in 8.0 mi SE 15.0 mph 29.9 mph N/A   Scattered Clouds
10:41 AM 80.6 °F 85.4 °F 73.4 °F 79% 29.92 in 8.0 mi SE 17.3 mph 29.9 mph N/A   Scattered Clouds
11:42 AM 82.4 °F 88.2 °F 73.4 °F 74% 29.91 in 8.0 mi SE 15.0 mph 26.5 mph N/A   Scattered Clouds
12:44 PM 84.2 °F 90.9 °F 73.4 °F 70% 29.88 in 8.0 mi SE 21.9 mph - N/A   Scattered Clouds
1:40 PM 82.4 °F 88.2 °F 73.4 °F 74% 29.87 in 8.0 mi SE 16.1 mph 27.6 mph N/A   Scattered Clouds
2:44 PM 82.4 °F 87.2 °F 71.6 °F 70% 29.84 in 8.0 mi SE 16.1 mph 27.6 mph N/A   Mostly Cloudy
3:47 PM 82.4 °F 88.2 °F 73.4 °F 74% 29.85 in 8.0 mi SSE 13.8 mph - N/A   Mostly Cloudy
4:41 PM 82.4 °F 88.2 °F 73.4 °F 74% 29.81 in 8.0 mi SE 17.3 mph - N/A   Mostly Cloudy
5:50 PM 80.6 °F 85.4 °F 73.4 °F 79% 29.81 in 8.0 mi SE 15.0 mph - N/A   Scattered Clouds
6:41 PM 77.0 °F - 73.4 °F 89% 29.80 in 8.0 mi SE 11.5 mph - N/A   Partly Cloudy
7:44 PM 77.0 °F - 73.4 °F 89% 29.83 in 7.0 mi SE 8.1 mph - N/A   Partly Cloudy
8:43 PM 75.2 °F - 73.4 °F 94% 29.84 in 7.0 mi SE 8.1 mph - N/A   Scattered Clouds
9:46 PM 75.2 °F - 73.4 °F 94% 29.88 in 7.0 mi SE 8.1 mph - N/A   Partly Cloudy
10:43 PM 77.0 °F - 73.4 °F 89% 29.85 in 7.0 mi SE 9.2 mph - N/A   Scattered Clouds
11:45 PM 77.0 °F - 73.4 °F 89% 29.85 in 7.0 mi SE 17.3 mph - N/A   Scattered Clouds
12:52 AM 75.2 °F - 73.4 °F 94% 29.82 in 7.0 mi SE 9.2 mph 20.7 mph N/A   Partly Cloudy